Wind_Speed
71 73 74 76 78 80 81 83 83 83 84 85 86 86 85 85 85 85 85 84 84 83 84 84 84 84 83 83 83 84 84 85 85 80 78 76 75 74 74 73 72 71 70
76 77 77 79 80 82 83 85 85 86 86 87 87 87 87 87 88 88 89 89 88 87 86 87 87 86 85 85 85 85 86 86 88 87 83 81 78 77 77 77 76 75 73
81 82 83 84 85 86 88 90 91 92 92 92 92 92 92 92 92 93 94 94 93 93 92 91 90 89 88 87 87 86 86 87 88 90 88 85 82 80 80 79 79 77 76
85 86 88 88 89 91 92 94 95 96 97 97 98 98 99 99 100 101 101 101 100 99 97 96 94 93 92 91 90 89 88 88 88 89 90 89 86 84 83 81 80 78 76
87 88 89 89 90 90 91 92 93 93 94 95 96 97 99 101 103 105 107 108 108 106 104 103 101 99 97 96 94 93 92 90 89 89 89 89 88 86 83 81 80 78 77
84 84 83 83 82 81 82 82 83 84 85 86 88 90 91 93 96 100 105 108 111 111 111 110 108 107 105 103 101 99 98 96 93 92 90 90 88 88 86 84 82 81 80
76 74 73 72 72 72 73 73 75 76 77 78 79 81 83 84 86 90 94 100 104 107 110 111 113 112 111 110 108 107 105 103 100 98 96 92 90 89 89 88 87 85 81
67 66 66 67 68 69 70 71 72 73 74 75 76 77 78 79 81 84 87 91 93 96 100 104 108 111 112 113 113 112 111 108 106 104 102 98 95 94 93 92 90 89 86
63 64 65 66 68 69 70 71 72 73 73 74 75 75 76 76 78 81 84 86 87 88 90 94 97 101 104 106 111 113 113 112 110 109 108 105 102 99 97 96 94 93 89
62 63 65 66 67 69 70 71 72 73 72 71 70 70 70 69 70 72 74 76 78 79 82 85 88 92 94 98 103 107 110 110 109 109 109 109 107 105 103 101 98 97 93
61 62 64 66 67 69 69 70 69 68 66 63 60 58 56 56 57 59 61 64 66 68 71 74 78 82 86 89 94 98 100 101 102 104 106 107 107 107 105 104 102 99 96
60 62 63 65 67 67 66 64 62 60 57 53 50 48 48 49 50 52 54 57 59 61 63 66 69 73 77 81 85 88 91 93 96 98 100 101 101 102 102 102 102 101 99
60 61 63 64 64 63 61 57 54 52 50 47 46 44 43 44 46 47 49 51 54 56 58 60 63 66 70 73 77 80 83 86 88 91 93 93 92 92 94 98 100 101 100
60 61 61 61 59 57 53 50 48 46 45 43 42 41 40 41 43 45 46 47 49 52 54 56 58 61 63 66 68 71 75 78 80 82 85 87 88 89 90 91 94 97 99
60 60 59 57 54 50 47 44 43 41 41 39 38 37 37 37 40 42 43 45 47 48 50 50 52 54 57 59 61 63 66 69 72 73 75 78 81 85 86 87 89 91 94
58 57 55 53 49 45 41 39 40 39 39 38 37 37 37 37 38 40 41 43 45 48 49 48 48 49 50 51 54 56 58 60 63 65 67 69 72 76 80 83 85 87 88
56 54 52 49 45 41 38 35 34 35 37 38 38 38 39 39 40 41 41 42 44 46 47 47 46 45 44 44 45 47 50 52 54 57 59 61 64 67 71 76 79 82 84
53 51 49 46 42 38 36 34 33 32 32 35 38 39 40 41 42 42 41 41 41 44 45 45 43 41 39 37 37 38 41 44 47 49 51 54 57 60 64 67 71 75 78
50 49 47 43 40 36 34 32 32 32 33 34 35 38 41 42 44 43 42 40 39 40 41 41 40 37 34 31 30 30 32 36 39 42 45 48 51 53 56 59 63 67 71
49 48 45 41 37 35 32 31 31 32 33 34 36 37 39 41 42 42 41 39 37 37 38 37 36 33 30 27 24 24 25 28 32 36 39 41 44 47 50 53 57 60 63
49 47 43 38 35 32 30 30 30 31 33 35 37 39 40 41 41 41 39 37 34 33 33 33 32 30 27 24 21 20 21 23 27 30 33 36 38 41 44 47 50 54 57
48 45 40 36 32 30 29 28 29 30 33 36 38 40 42 42 41 40 38 34 31 29 29 29 28 26 24 22 20 18 18 19 22 25 28 31 33 36 38 41 44 47 51
46 41 37 33 29 27 26 26 27 29 32 35 38 40 41 42 40 38 35 32 28 26 25 25 25 24 23 21 19 17 16 16 17 19 21 24 27 29 32 34 37 39 42
41 37 32 29 26 24 23 24 26 28 31 34 36 38 39 39 38 36 33 29 26 24 22 22 21 21 21 20 19 17 16 14 14 15 17 19 21 24 26 28 30 32 35
36 31 28 26 23 21 21 22 24 27 30 32 35 36 37 36 35 34 31 28 25 23 21 20 19 19 18 18 18 17 15 14 12 13 14 15 18 20 23 25 27 29 32
30 27 25 23 20 19 19 20 23 25 28 31 32 33 34 33 32 31 29 27 25 23 21 19 18 17 17 17 16 15 14 13 12 11 11 12 14 17 19 22 25 27 30
Wind_Direction
275 273 272 271 270 269 269 269 269 269 269 269 268 268 268 268 267 266 265 264 263 263 262 261 260 259 258 257 257 257 257 257 256 254 254 254 254 255 256 257 257 257 258
278 277 276 275 274 273 273 273 272 272 271 271 270 269 268 267 267 266 266 266 265 264 263 263 261 260 259 259 258 257 257 257 257 255 255 255 254 254 254 255 256 257 257
281 280 279 278 277 276 275 275 274 273 272 271 270 269 268 267 267 266 266 266 265 265 264 263 262 261 260 260 259 259 259 258 257 256 255 256 256 255 255 255 256 256 257
283 282 280 279 278 277 276 275 274 274 273 272 270 269 268 267 266 265 265 265 265 264 264 263 262 262 261 261 260 260 260 259 258 257 256 255 256 256 256 255 255 255 256
283 282 282 281 280 279 278 277 277 276 275 274 273 272 270 269 268 266 265 264 263 263 263 263 262 262 261 261 260 260 261 261 260 260 258 257 256 256 256 256 255 254 253
284 284 283 283 283 282 282 281 280 280 279 278 277 275 274 272 271 269 268 266 264 263 262 262 262 262 262 262 261 261 260 260 260 260 260 259 259 258 257 256 255 254 253
286 286 286 286 286 286 286 285 284 283 282 281 280 279 277 275 274 272 271 269 267 265 264 263 262 262 262 263 263 262 261 261 260 260 260 260 260 260 259 257 256 255 254
288 288 289 289 289 289 289 288 287 287 286 285 283 281 280 278 276 274 273 271 269 268 266 265 263 262 262 262 262 261 261 261 261 260 260 259 258 258 258 258 257 256 254
289 290 291 291 291 291 291 291 290 290 289 287 286 284 282 280 277 275 274 272 271 270 268 267 265 263 262 262 261 260 260 259 259 259 259 258 256 256 256 256 256 256 255
291 292 292 293 293 294 294 294 293 293 292 291 289 288 285 283 280 278 276 275 273 271 269 268 266 265 262 261 260 260 258 257 257 256 256 256 255 254 254 254 254 254 254
292 293 294 295 296 296 297 297 297 297 297 295 294 292 290 288 285 283 281 279 277 274 272 270 268 266 264 262 260 259 258 257 255 254 253 253 252 252 252 252 252 252 252
294 295 297 298 299 299 300 301 301 301 300 299 297 295 294 293 291 289 287 285 282 280 277 274 271 268 265 263 261 260 258 256 255 253 252 251 250 249 249 249 249 248 248
296 297 299 300 300 301 302 303 303 303 302 301 300 298 297 295 295 294 294 293 291 288 285 281 277 272 268 264 262 260 258 256 255 253 252 251 250 248 247 246 246 245 245
297 298 299 300 301 302 303 303 304 304 305 305 303 301 299 298 297 296 297 297 296 296 293 289 284 279 274 268 263 260 258 256 255 253 252 250 248 246 245 245 244 244 244
297 298 299 299 300 301 302 302 304 305 308 309 308 306 305 303 301 300 299 299 300 301 299 296 290 283 278 272 266 261 258 255 253 252 251 249 247 246 244 243 243 243 243
297 297 298 299 299 298 298 300 304 307 311 314 315 314 313 310 309 307 306 306 306 307 308 305 300 293 284 276 269 262 258 255 252 251 249 248 247 245 244 242 242 242 242
295 296 297 297 297 295 295 297 301 307 312 314 316 318 317 316 314 312 310 309 309 311 313 312 308 302 293 283 273 264 258 254 251 249 248 247 246 245 244 242 241 241 241
294 295 296 295 294 293 294 297 301 305 309 314 316 318 318 318 317 316 314 312 311 313 316 316 313 308 300 291 280 268 259 253 250 248 246 245 245 244 243 242 241 240 240
292 293 294 293 291 291 293 297 301 307 311 315 318 319 320 319 318 318 316 314 313 314 317 318 317 313 307 299 288 274 262 254 249 247 245 245 245 244 244 242 241 240 239
291 292 291 289 288 289 291 296 301 307 312 316 318 320 320 320 319 318 316 315 313 315 318 321 321 319 314 307 296 282 267 257 251 248 247 247 246 245 244 242 241 239 239
290 290 288 285 284 285 289 294 301 308 313 317 320 322 323 322 321 319 317 314 313 314 318 322 324 324 322 316 305 291 275 263 255 251 249 248 247 246 245 243 241 239 238
287 285 282 279 279 282 286 294 302 310 315 320 323 325 326 326 325 323 320 317 313 314 318 323 326 327 326 323 317 305 288 274 264 258 253 251 249 247 245 243 241 239 238
283 279 275 273 273 278 284 294 304 312 317 322 325 327 328 328 328 327 325 321 317 314 317 321 325 328 330 329 324 315 302 288 274 264 257 253 249 246 244 241 240 238 237
277 272 267 265 268 274 283 295 306 314 319 324 327 328 330 331 332 332 332 329 325 320 318 319 322 325 327 330 330 325 315 300 285 271 260 252 245 241 238 236 235 235 235
268 261 258 258 263 271 283 297 308 316 321 326 328 330 332 333 334 335 336 336 335 332 327 322 321 323 324 327 329 329 327 317 302 285 270 258 248 241 236 233 232 231 231
256 250 248 251 257 269 284 298 309 317 323 327 330 332 333 334 335 335 336 339 340 341 340 337 330 325 323 324 327 328 327 325 319 304 284 268 257 248 242 238 235 233 231
Height
5628 5625 5622 5620 5617 5614 5611 5608 5606 5604 5602 5601 5599 5598 5597 5596 5596 5596 5596 5597 5598 5599 5599 5601 5602 5603 5605 5606 5607 5609 5612 5614 5621 5631 5633 5636 5638 5641 5642 5645 5648 5651 5653
5607 5604 5601 5598 5595 5591 5588 5585 5582 5580 5578 5576 5575 5575 5573 5572 5571 5571 5571 5571 5572 5574 5575 5576 5578 5579 5581 5583 5584 5586 5588 5590 5595 5603 5609 5612 5616 5620 5622 5624 5628 5631 5634
5584 5581 5577 5574 5571 5567 5563 5560 5557 5554 5552 5550 5549 5548 5548 5547 5546 5544 5543 5543 5544 5546 5548 5550 5552 5553 5556 5557 5559 5562 5564 5566 5569 5576 5583 5587 5592 5596 5599 5604 5608 5611 5614
5560 5556 5552 5548 5544 5540 5536 5532 5528 5525 5523 5521 5520 5519 5518 5517 5517 5514 5512 5513 5514 5516 5519 5522 5525 5527 5529 5531 5533 5536 5538 5541 5544 5549 5557 5562 5566 5571 5575 5582 5586 5591 5594
5536 5531 5526 5521 5516 5512 5508 5503 5499 5496 5493 5491 5489 5488 5487 5486 5484 5481 5479 5479 5481 5485 5488 5491 5495 5497 5500 5502 5505 5509 5510 5514 5518 5523 5530 5535 5541 5546 5553 5558 5561 5565 5568
5510 5505 5500 5496 5491 5486 5481 5477 5473 5470 5466 5463 5460 5458 5456 5455 5451 5446 5443 5443 5447 5451 5456 5460 5463 5466 5470 5471 5474 5477 5481 5485 5491 5496 5502 5509 5517 5521 5525 5529 5534 5538 5546
5488 5483 5478 5474 5469 5464 5459 5455 5451 5446 5443 5439 5435 5431 5428 5427 5421 5415 5410 5408 5412 5417 5421 5425 5429 5433 5436 5438 5441 5443 5447 5453 5460 5467 5473 5483 5490 5494 5497 5502 5507 5513 5522
5469 5465 5460 5455 5450 5444 5439 5434 5429 5424 5419 5414 5410 5405 5401 5399 5392 5386 5381 5378 5381 5385 5387 5389 5392 5398 5402 5403 5404 5406 5412 5420 5429 5434 5443 5456 5459 5462 5466 5474 5479 5486 5493
5453 5447 5442 5436 5431 5425 5419 5413 5407 5401 5396 5390 5385 5379 5374 5371 5364 5358 5353 5351 5353 5355 5355 5356 5357 5360 5367 5366 5364 5369 5377 5386 5393 5397 5405 5416 5425 5431 5436 5441 5450 5458 5469
5437 5431 5424 5418 5412 5406 5399 5392 5385 5378 5372 5366 5360 5354 5348 5344 5338 5332 5327 5325 5325 5326 5326 5325 5325 5326 5328 5328 5327 5330 5337 5351 5358 5361 5367 5377 5388 5397 5403 5411 5421 5429 5442
5420 5414 5407 5400 5393 5386 5379 5371 5363 5356 5350 5343 5337 5332 5325 5320 5315 5309 5304 5300 5299 5299 5298 5297 5296 5294 5293 5294 5293 5295 5303 5312 5317 5323 5330 5340 5351 5362 5372 5380 5390 5399 5411
5404 5397 5390 5383 5375 5367 5360 5353 5344 5337 5331 5325 5319 5314 5308 5302 5296 5291 5285 5281 5277 5275 5273 5271 5268 5265 5263 5263 5262 5265 5270 5274 5280 5287 5294 5305 5317 5329 5340 5348 5355 5365 5376
5388 5381 5374 5366 5358 5350 5343 5336 5329 5322 5315 5310 5305 5300 5294 5288 5281 5275 5269 5263 5257 5253 5249 5245 5241 5238 5235 5235 5235 5236 5237 5241 5246 5253 5262 5274 5287 5298 5306 5313 5320 5329 5341
5372 5365 5358 5351 5343 5336 5329 5322 5316 5309 5303 5297 5291 5286 5281 5275 5268 5261 5255 5249 5243 5236 5229 5223 5218 5212 5208 5207 5208 5208 5209 5213 5217 5224 5233 5243 5253 5263 5273 5282 5290 5298 5307
5355 5349 5342 5336 5330 5324 5318 5311 5304 5298 5291 5285 5280 5274 5268 5263 5256 5248 5241 5235 5228 5221 5212 5206 5198 5192 5186 5183 5182 5183 5184 5187 5192 5198 5206 5214 5223 5232 5244 5254 5261 5269 5278
5340 5334 5328 5322 5317 5311 5307 5302 5294 5288 5281 5274 5268 5262 5256 5250 5243 5236 5229 5221 5213 5204 5195 5187 5179 5172 5165 5161 5159 5160 5162 5165 5170 5175 5182 5189 5197 5205 5215 5225 5234 5243 5253
5324 5319 5314 5309 5304 5300 5295 5291 5287 5281 5273 5265 5259 5252 5245 5238 5232 5225 5217 5209 5200 5191 5182 5173 5164 5156 5149 5144 5141 5141 5143 5146 5150 5155 5162 5169 5175 5183 5191 5200 5209 5219 5228
5310 5305 5301 5296 5292 5288 5285 5280 5276 5271 5266 5259 5251 5243 5236 5228 5220 5213 5206 5198 5190 5180 5171 5162 5153 5144 5136 5131 5127 5127 5128 5131 5135 5140 5145 5151 5157 5163 5170 5178 5187 5197 5206
5296 5292 5288 5284 5281 5277 5274 5271 5266 5261 5255 5250 5243 5235 5226 5218 5210 5202 5195 5187 5180 5171 5162 5153 5144 5135 5128 5122 5118 5117 5117 5119 5122 5127 5132 5137 5142 5147 5153 5161 5168 5176 5184
5282 5279 5275 5272 5269 5267 5264 5261 5257 5252 5246 5240 5234 5227 5219 5210 5201 5192 5184 5177 5169 5162 5155 5146 5138 5129 5122 5117 5113 5111 5110 5111 5113 5117 5121 5125 5129 5134 5139 5145 5151 5158 5166
5268 5265 5262 5260 5258 5256 5254 5251 5247 5243 5237 5231 5224 5217 5209 5201 5192 5183 5175 5168 5161 5154 5147 5140 5133 5125 5119 5113 5109 5106 5105 5106 5107 5109 5112 5115 5118 5122 5126 5131 5136 5142 5149
5254 5251 5249 5248 5247 5246 5244 5242 5238 5234 5228 5222 5215 5207 5199 5191 5182 5174 5166 5159 5153 5147 5141 5135 5129 5122 5116 5111 5107 5104 5102 5101 5101 5102 5104 5106 5109 5112 5115 5119 5124 5129 5135
5239 5238 5237 5237 5237 5236 5235 5232 5229 5225 5219 5213 5206 5198 5190 5182 5174 5166 5158 5151 5145 5140 5135 5130 5125 5119 5114 5109 5105 5102 5099 5097 5097 5097 5098 5099 5101 5103 5106 5110 5114 5119 5124
5224 5224 5225 5226 5226 5226 5225 5223 5220 5216 5211 5205 5198 5191 5183 5175 5167 5159 5152 5145 5139 5134 5130 5126 5121 5117 5112 5108 5104 5100 5097 5095 5093 5093 5093 5093 5094 5096 5099 5102 5106 5110 5115
5210 5212 5213 5215 5216 5217 5216 5214 5212 5208 5203 5197 5190 5183 5176 5169 5161 5154 5148 5141 5136 5130 5126 5122 5118 5114 5110 5107 5103 5099 5096 5093 5091 5090 5090 5090 5090 5091 5093 5096 5099 5102 5106
5198 5200 5203 5205 5207 5208 5207 5206 5203 5199 5195 5189 5183 5177 5170 5164 5157 5151 5145 5139 5133 5128 5123 5119 5115 5111 5108 5105 5101 5098 5095 5093 5090 5089 5088 5088 5088 5089 5090 5092 5094 5097 5100